Location: ??????
(41.3164°N, 22.6615°E)
Time: 22:47:04
(UTC+00:00)

Cosmos 489 Rocket - Pass Details

Date: 16 October 2021
Orbit: 953 x 983 km, 74.0° (Epoch: 26 November)

Event Time Altitude Azimuth Distance (km) Brightness Sun altitude
Rises 17:16:18 0° 343° (NNW) 3,639 7.8 -17.6°
Reaches altitude 10° 17:18:53 10° 347° (NNW) 2,689 7.0 -18.0°
Maximum altitude 17:25:01 60° 67° (ENE) 1,083 4.4 -19.2°
Enters shadow 17:29:05 22° 141° (SE) 1,961 5.7 -19.9°
